Regional Weather Roundup
Issued by NWS

Home | Current Version | Previous Version | Graphics & Text | Print | Product List | Glossary On
Versions: 1 2 3 4 5 6 7 8 9 10 11 12 13 14 15 16 17 18 19 20 21 22 23 24 25 26 27
000
ASUS43 KDMX 150607
RWRIA

WEATHER ROUNDUP FOR IOWA
NATIONAL WEATHER SERVICE DES MOINES IA
100 AM CDT TUE APR 15 2014

NOTE: "FAIR" INDICATES FEW OR NO CLOUDS BELOW 12,000 FEET WITH NO
SIGNIFICANT WEATHER AND/OR OBSTRUCTIONS TO VISIBILITY.

* - THESE STATIONS ARE NOT NWS STATIONS...THUS NOT UNDER NWS
QUALITY CONTROL.  THEY ALSO DO NOT REPORT WEATHER SUCH
AS PRECIPITATION OR FOG.

IAZ001>003-012>014-020>022-031>034-043>046-150700-
   NORTHWEST IOWA

CITY           SKY/WX    TMP DP  RH WIND       PRES   REMARKS
CARROLL *      MOCLDY    27  21  80 W6        30.16R WCI  20
CHEROKEE *       N/A     26  18  74 N6        30.17R WCI  19
DENISON *        N/A     25  21  86 CALM      30.16S
LE MARS *        N/A     25  19  80 CALM      30.19S
ORANGE CITY *    N/A     25  19  80 N5        30.16S WCI  19
SHELDON *        N/A     19  16  86 NW5       30.16S WCI  13
SIOUX CITY       N/A     26  17  68 N3        30.19S
6HR MIN TEMP:  24; 6HR MAX TEMP:  41;

SPENCER          N/A     21  17  84 NW8       30.15S WCI  11
6HR MIN TEMP:  21; 6HR MAX TEMP:  34;

STORM LAKE *     N/A     25  19  80 N9        30.15S WCI  15
$$

IAZ055>058-069>071-079>083-090>094-150700-
   SOUTHWEST IOWA

CITY           SKY/WX    TMP DP  RH WIND       PRES   REMARKS
ATLANTIC *     CLOUDY    28  23  80 CALM      30.17R
AUDUBON *        N/A     25  18  74 CALM      30.16S
CLARINDA *       N/A     28  27  93 CALM      30.19S
COUNCIL BLFS * MOCLDY    30  23  74 N5        30.16S WCI  25
CRESTON *        N/A     28  19  69 N5        30.16S WCI  23
HARLAN  *        N/A     28  23  80 CALM      30.20S
LAMONI           N/A     28  19  69 N6        30.15S WCI  22
6HR MIN TEMP:  28; 6HR MAX TEMP:  37;

RED OAK *        N/A     28  25  86 CALM      30.18R
SHENANDOAH *     N/A     27  25  93 CALM      30.19S
$$

IAZ047>049-059>061-072>074-084-150700-
   CENTRAL IOWA

CITY           SKY/WX    TMP DP  RH WIND       PRES   REMARKS
AMES             N/A     27  19  72 NW6       30.14S WCI  20
6HR MIN TEMP:  27; 6HR MAX TEMP:  36;

ANKENY *         N/A     28  19  69 NW5       30.15S WCI  23
CHARITON *       N/A     28  19  69 NW6       30.15S WCI  22
DES MOINES       N/A     30  17  58 NW3       30.16R
6HR MIN TEMP:  30; 6HR MAX TEMP:  38;

GRINNELL*        N/A     26  21  80 NW6       30.13S WCI  20
KNOXVILLE *      N/A     30  18  59 NW6       30.14F WCI  24
MARSHALLTOWN     N/A     27  21  78 W6        30.12R WCI  20
6HR MIN TEMP:  27; 6HR MAX TEMP:  35;

NEWTON *         N/A     28  19  69 NW6       30.14S WCI  22
PELLA *          N/A     28  20  73 NW6       30.15S WCI  21
PERRY *          N/A     28  23  81 W6        30.16R WCI  22
$$

IAZ004>006-015-016-023>025-035-036-150700-
   NORTH CENTRAL IOWA

CITY           SKY/WX    TMP DP  RH WIND       PRES   REMARKS
ALGONA *         N/A     27  19  74 NW9       30.14S WCI  17
CLARION *        N/A     25  19  80 NW6       30.13S WCI  18
ESTHERVILLE      N/A     23  19  85 NW10      30.14R WCI  12
6HR MIN TEMP:  23; 6HR MAX TEMP:  33;

FORT DODGE *     N/A     27  18  69 N5        30.15S WCI  21
MASON CITY       N/A     24  17  74 NW9       30.12S WCI  14
6HR MIN TEMP:  24; 6HR MAX TEMP:  34;

FOREST CITY *    N/A     28  19  69 NW7       30.11S WCI  21
IOWA FALLS *     N/A     27  20  76 NW7       30.13R WCI  19
$$

IAZ007>011-017>019-026>030-037>042-050>054-066-150700-
   NORTHEAST IOWA

CITY           SKY/WX    TMP DP  RH WIND       PRES   REMARKS
CEDAR RAPIDS     N/A     27  19  72 NW8       30.09R WCI  19
6HR MIN TEMP:  27; 6HR MAX TEMP:  35;

CHARLES CITY *   N/A     28  16  59 NW10      30.10S WCI  19
CLINTON *        N/A     27  19  74 NW8       30.09R WCI  18
DECORAH *      CLOUDY    27  16  63 CALM      30.05F
DUBUQUE          N/A     25  18  74 NW8       30.05R WCI  16
6HR MIN TEMP:  24; 6HR MAX TEMP:  32;

MONTICELLO *     N/A     27  19  74 NW7       30.07S WCI  19
OELWEIN *        N/A    N/A N/A N/A NW10      30.09R
WATERLOO         N/A     26  16  65 W6        30.10S WCI  19
6HR MIN TEMP:  26; 6HR MAX TEMP:  34;

$$

IAZ064-065-067-068-078-150700-
   EAST CENTRAL IOWA

CITY           SKY/WX    TMP DP  RH WIND       PRES   REMARKS
DAVENPORT        N/A     30  22  72 NW10      30.07S WCI  21
6HR MIN TEMP:  30; 6HR MAX TEMP:  35;

IOWA CITY        N/A     30  19  63 NW8       30.12R WCI  22
6HR MIN TEMP:  30; 6HR MAX TEMP:  37;

MT. PLEASANT *   N/A     31  18  58 NW9       30.12R WCI  23
MUSCATINE *      N/A     30  21  69 NW9       30.11R WCI  22
QUAD CITIES      N/A     31  21  66 NW12      30.07S WCI  22
6HR MIN TEMP:  31; 6HR MAX TEMP:  36; 6HR PCP: TRACE;

$$

IAZ062-063-075>077-085>089-095>099-150700-
   SOUTHEAST IOWA

CITY           SKY/WX    TMP DP  RH WIND       PRES   REMARKS
BURLINGTON       N/A     31  21  66 NW9       30.10R WCI  23
6HR MIN TEMP:  31; 6HR MAX TEMP:  36;

FAIRFIELD *      N/A     28  21  74 W7        30.13S WCI  21
FORT MADISON *   N/A     30  23  74 NW10      30.12R WCI  21
KEOKUK *         N/A     30  21  69 NW7       30.12R WCI  23
OSKALOOSA *      N/A     29  22  75 NW8       30.14R WCI  21
CENTERVILLE *    N/A     27  23  86 NW6       30.16S WCI  20
OTTUMWA          N/A     27  19  72 NW8       30.13S WCI  19
6HR MIN TEMP:  27; 6HR MAX TEMP:  36;

WASHINGTON *     N/A     30  21  69 NW12      30.11S WCI  21
$$

ABBREVIATIONS USED IN REMARKS
   TC - TEMPERATURES IN CELSIUS
  WCI - WIND CHILL INDEX
   HX - HEAT INDEX
  VSB - VISIBILITY
$$




USA.gov is the U.S. government's official web portal to all federal, state and local government web resources and services.